SCP
0 0 0 0 1 1 1 1 1 1 1 1 1 0 0 0 0 0 0 0 0 0 1 1 1 1 1 1 1 1 1 1 1 1 1 1 1 1 0 0 0 1 1 1
0 0 0 1 1 1 1 1 1 0 0 0 0 0 0 0 0 0 0 0 0 0 1 1 1 1 1 1 1 1 1 1 1 1 1 1 1 1 1 1 1 1 1 1
0 0 0 1 1 0 0 0 0 0 0 0 0 0 0 0 0 0 0 0 0 0 1 1 1 1 1 1 1 1 1 1 1 1 1 1 1 1 1 1 1 1 1 1
0 0 0 0 0 0 0 0 0 0 0 0 0 0 0 0 0 0 0 0 0 0 0 0 0 1 1 1 1 1 1 1 1 1 1 1 1 1 1 1 1 1 1 1
0 0 0 0 0 0 0 0 0 0 0 0 0 0 0 0 0 0 0 0 0 0 0 0 0 1 1 1 1 1 1 1 1 1 1 1 1 1 1 1 1 1 0 0
0 0 0 0 0 0 0 0 0 0 0 0 0 0 0 0 0 0 0 0 0 0 0 1 1 1 1 1 1 0 0 0 0 1 1 1 1 1 1 1 1 1 0 0
0 0 0 0 0 0 0 0 0 0 0 0 0 0 0 0 0 0 0 0 0 1 1 1 2 2 1 1 1 0 0 0 0 1 1 1 1 1 1 1 1 1 0 0
0 0 0 0 0 0 0 0 0 0 0 0 0 0 0 0 0 0 0 0 0 1 1 2 2 2 1 1 1 0 0 0 0 1 1 1 1 1 1 1 1 0 0 0
0 0 0 0 0 0 0 0 0 0 0 0 0 0 0 0 0 0 0 0 1 1 1 1 1 1 1 1 0 0 0 0 0 1 1 1 1 1 1 1 1 0 0 0
0 0 0 0 0 0 0 0 0 0 0 0 0 0 0 0 0 0 0 1 1 1 1 1 1 1 0 0 0 0 0 0 0 0 1 1 1 1 1 1 1 0 0 0
0 0 0 0 0 0 0 0 0 0 0 0 0 0 0 0 0 0 0 1 1 1 0 0 0 0 0 0 0 0 0 0 0 0 0 0 0 0 0 0 0 0 0 0
0 0 0 0 0 0 0 0 0 0 0 0 0 0 0 0 0 0 0 0 0 0 0 0 0 0 0 0 0 0 0 0 0 0 0 0 0 0 0 0 0 0 0 0
0 0 0 0 0 0 0 0 0 0 0 0 0 0 0 0 0 0 0 0 0 0 0 0 0 0 0 0 0 0 0 0 0 0 0 0 0 0 0 0 0 0 0 0
0 0 0 0 0 0 0 0 0 0 0 0 0 0 0 0 0 0 0 0 0 0 0 0 0 0 0 0 0 0 0 0 0 0 0 0 0 0 0 0 0 0 0 0
0 0 0 0 0 0 0 0 0 0 0 0 0 0 0 0 0 0 0 0 0 0 0 0 0 0 0 0 0 0 0 0 0 0 0 0 0 0 0 0 0 0 0 0
0 0 0 0 0 0 0 0 0 0 0 0 0 0 0 0 0 0 0 0 0 0 0 0 0 0 0 0 0 0 0 0 0 0 0 0 0 0 0 0 0 0 0 0
0 0 0 0 0 0 0 0 0 0 0 0 0 0 0 0 0 0 0 0 0 0 0 0 0 0 0 0 0 0 0 0 0 0 0 0 0 0 0 0 0 0 0 0
0 0 0 0 0 0 0 0 0 0 0 0 0 0 0 0 0 0 0 0 0 0 0 0 0 0 0 0 0 0 0 0 0 0 0 0 0 0 0 0 0 0 0 0
0 0 0 0 0 0 0 0 0 0 0 0 0 0 0 0 0 0 0 0 0 0 0 0 0 0 0 0 0 0 0 0 0 0 0 0 0 0 0 0 0 0 0 0
0 0 0 0 0 0 0 0 0 0 0 0 0 0 0 0 0 0 0 0 0 0 0 0 0 0 0 0 0 0 0 0 0 0 0 0 0 0 0 0 0 0 0 0
0 0 0 0 0 0 0 0 0 0 0 0 0 0 0 0 0 0 0 0 0 0 0 0 0 0 0 0 0 0 0 0 0 0 0 0 0 0 0 0 0 0 0 0
0 0 0 0 0 0 0 0 0 0 0 0 0 0 0 0 0 0 0 0 0 0 0 0 0 0 0 0 0 0 0 0 0 0 0 0 0 0 0 0 0 0 0 0
0 0 0 0 0 0 0 0 0 0 0 0 0 0 0 0 0 0 0 0 0 0 0 0 0 0 0 0 0 0 0 0 0 0 0 0 0 0 0 0 0 0 0 0
0 0 0 0 0 0 0 0 0 0 0 0 0 0 0 0 0 0 0 0 0 0 0 0 0 0 0 0 0 0 0 0 0 0 0 0 0 0 0 0 0 0 0 0
0 0 0 0 0 0 0 0 0 0 0 0 0 0 0 0 0 0 0 0 0 0 0 0 0 0 0 0 0 0 0 0 0 0 0 0 0 0 0 0 0 0 0 0
0 0 0 0 0 0 0 0 0 0 0 0 0 0 0 0 0 0 0 0 0 0 0 0 0 0 0 0 0 0 0 0 0 0 0 0 0 0 0 0 0 0 0 0
0 0 0 0 0 0 0 0 0 0 0 0 0 0 0 0 0 0 0 0 0 0 0 0 0 0 0 0 0 0 0 0 0 0 0 0 0 0 0 0 0 0 0 0
Wind_Speed
16 16 14 10 9 10 9 10 11 14 13 9 5 8 11 13 15 18 19 18 14 12 11 10 10 9 9 9 9 9 9 10 10 10 9 10 10 10 10 10 12 10 9 8
16 15 8 4 9 9 8 9 12 15 16 9 8 10 13 15 19 22 20 16 15 15 14 12 11 11 11 10 9 9 9 10 10 10 10 10 10 10 10 10 10 10 9 9
13 13 9 5 9 9 9 11 13 17 16 14 14 14 16 18 21 20 16 18 18 17 14 11 12 11 11 10 10 10 10 11 10 10 10 10 12 11 10 10 10 10 10 9
11 12 7 7 5 7 10 12 15 14 14 16 17 19 18 18 17 17 21 21 18 17 17 16 14 14 12 14 12 11 11 12 11 10 11 10 10 9 8 7 8 8 9 9
7 12 4 6 6 10 13 16 12 14 17 20 21 22 19 17 20 21 20 18 16 18 19 17 16 15 13 13 13 14 14 13 13 12 12 10 10 9 7 7 7 8 9 10
8 11 10 7 9 12 14 10 14 19 21 22 24 21 17 20 22 22 20 18 17 19 18 16 14 14 14 15 15 15 15 14 13 13 13 12 11 9 9 7 8 9 10 10
9 11 5 7 12 15 12 13 19 20 21 22 21 20 21 24 23 21 20 20 18 17 15 12 11 11 13 15 15 15 15 15 14 13 13 13 11 9 9 9 9 9 9 9
8 9 6 11 12 11 12 15 18 20 21 21 22 23 23 23 22 21 21 22 21 16 13 11 11 11 13 14 15 15 15 16 15 13 14 14 10 9 8 8 8 9 9 10
6 7 8 10 11 12 14 17 18 20 22 22 24 25 25 24 21 21 22 20 18 17 15 13 12 11 15 15 15 16 16 16 15 15 13 12 11 10 8 7 7 8 8 8
7 8 11 12 14 15 17 18 19 20 22 23 24 25 25 23 21 21 20 20 18 19 19 17 16 15 15 16 15 16 16 15 14 13 12 11 9 8 8 7 8 8 8 6
10 10 12 12 16 17 18 19 20 21 22 23 24 25 25 22 21 20 19 19 19 19 20 21 18 17 17 16 15 16 15 14 13 12 11 10 9 8 9 8 7 6 5 4
7 10 12 15 16 18 19 20 21 21 22 23 23 24 24 22 21 20 21 21 21 21 21 21 20 19 17 15 14 14 12 12 10 8 8 8 8 8 10 10 8 7 5 3
8 11 13 15 16 17 18 21 21 21 22 23 22 22 23 22 21 22 22 22 22 22 22 20 19 19 16 14 13 12 12 11 8 8 8 7 7 7 6 6 6 6 5 5
8 10 13 13 16 17 19 21 21 21 21 21 21 22 22 22 22 23 22 22 22 22 21 19 18 17 14 12 11 12 11 11 9 7 7 6 6 6 5 5 6 5 5 7
9 11 12 14 15 17 18 19 20 20 21 21 21 21 22 22 22 22 22 21 21 21 19 18 16 15 13 11 10 10 8 6 5 5 5 5 5 5 5 5 4 4 6 6
10 11 12 14 16 17 19 20 20 21 21 22 21 22 22 21 21 21 21 21 21 21 19 17 15 13 12 9 8 6 5 4 3 2 3 3 4 4 4 4 4 4 6 7
10 11 13 15 16 17 18 19 19 20 20 21 22 22 22 21 21 21 22 21 20 18 16 15 14 13 11 9 8 5 3 1 2 2 2 2 2 3 3 4 4 5 5 8
9 10 11 13 14 16 17 18 18 19 19 20 21 21 21 20 20 21 22 21 19 17 15 15 15 13 10 9 8 5 3 2 1 1 2 2 2 2 3 3 4 7 7 8
9 10 11 12 13 14 15 16 17 17 17 18 19 20 19 18 18 19 20 19 17 16 17 16 16 12 10 10 10 4 4 3 3 3 3 3 3 3 2 3 5 6 7 8
8 9 11 12 13 13 14 15 16 15 16 17 18 18 18 18 18 19 19 16 13 14 16 15 13 10 10 11 12 5 4 4 4 3 3 3 4 3 3 4 5 6 7 7
8 10 11 12 13 13 13 14 14 15 15 16 16 17 17 17 17 16 15 13 15 18 17 14 10 9 10 12 11 6 5 5 4 4 3 3 3 3 3 4 5 6 6 6
7 8 10 11 12 12 12 12 13 14 15 15 16 16 16 16 17 16 14 11 14 19 14 10 10 11 14 14 7 6 5 4 3 3 3 2 2 2 3 4 4 5 6 7
6 7 8 10 11 12 12 12 13 13 14 14 14 15 15 13 10 11 13 12 13 19 13 9 14 16 16 9 6 5 5 5 4 3 2 2 2 2 3 4 4 5 6 7
5 6 7 8 10 10 11 11 12 10 12 12 13 13 13 11 10 10 10 14 18 18 11 12 16 17 13 6 6 5 4 4 3 3 2 1 1 2 3 4 5 6 6 7
5 6 7 7 8 7 9 10 10 10 12 11 14 14 12 9 9 11 12 14 17 16 12 13 16 16 10 7 7 6 5 4 4 3 2 1 2 3 3 4 5 5 6 6
5 6 5 5 5 5 7 7 8 8 9 10 11 11 11 10 11 11 11 14 17 16 13 11 12 12 10 9 8 8 7 5 4 2 1 1 1 2 3 4 6 6 6 6
7 6 4 4 3 5 6 7 7 8 8 10 11 11 11 11 11 12 13 12 12 13 12 12 11 10 11 11 10 9 9 8 7 5 3 2 1 2 3 4 3 4 5 6
Wind_Direction
317 312 318 334 6 10 1 349 329 332 327 327 335 333 330 326 325 323 319 315 318 325 326 320 312 302 296 291 286 281 274 267 261 255 253 256 259 263 267 270 274 276 280 285
308 312 322 29 38 17 3 350 333 322 318 346 344 337 329 327 324 317 314 322 330 325 319 315 310 305 300 294 290 283 277 274 268 261 258 257 256 255 257 260 263 266 266 271
307 309 296 66 34 11 350 338 328 318 329 349 341 332 327 326 316 312 329 328 322 317 313 306 303 297 293 295 296 294 290 286 279 271 266 261 264 261 254 254 254 257 259 259
301 316 343 80 48 3 333 324 331 340 355 344 330 326 323 312 318 335 328 320 315 312 308 303 300 299 297 297 295 293 291 291 289 285 281 274 265 262 260 261 262 263 264 263
333 337 6 121 42 360 331 317 17 358 341 333 330 319 312 327 335 322 314 312 310 307 303 300 297 296 294 293 293 291 291 288 288 285 283 279 274 268 265 261 262 262 264 259
340 329 341 59 11 344 317 296 15 348 336 331 325 317 320 327 318 314 314 309 303 300 297 294 294 295 293 293 292 290 290 288 287 282 279 277 275 273 272 266 264 263 260 258
339 322 45 28 352 345 329 332 339 331 328 324 321 314 313 315 315 312 308 305 302 298 295 292 291 290 290 291 289 289 289 287 284 280 277 274 269 265 264 262 263 263 265 265
336 327 18 4 353 354 325 324 328 327 324 319 315 313 313 312 311 309 308 306 306 301 296 293 295 296 294 291 291 290 288 284 281 276 275 274 267 265 262 257 258 260 257 256
333 317 338 359 351 344 339 331 328 323 320 319 316 315 314 313 311 310 309 309 309 309 308 307 308 303 297 296 296 292 286 281 278 276 271 267 264 264 261 251 248 252 252 245
309 315 347 348 346 343 338 328 324 322 320 319 316 315 315 314 314 314 316 319 320 319 314 312 310 305 298 296 291 285 280 279 276 273 268 262 254 252 250 244 243 246 250 253
308 345 342 338 340 335 328 327 324 322 321 319 317 317 318 319 320 323 324 325 325 320 314 310 307 300 295 291 287 282 279 276 274 268 263 259 252 245 243 239 236 239 244 241
327 341 324 325 332 330 329 326 327 325 323 322 322 323 324 325 327 328 328 326 321 316 310 306 303 297 293 288 283 280 279 275 269 263 258 252 248 248 232 227 217 203 197 186
327 331 326 324 325 330 327 328 328 327 325 326 328 329 330 331 331 329 326 323 319 314 309 306 303 298 294 287 282 279 276 272 265 260 255 247 238 232 228 211 191 182 184 168
337 333 324 325 328 330 331 329 329 327 329 330 332 334 336 333 331 328 325 321 317 314 311 309 306 304 300 293 284 280 276 270 261 254 248 241 233 224 215 203 188 181 159 147
339 330 323 327 329 332 332 332 331 332 333 336 337 339 337 335 331 327 323 321 319 317 318 318 316 314 312 306 295 287 281 272 263 251 236 227 222 217 212 203 192 170 143 132
325 325 329 332 333 333 334 336 335 334 337 338 340 340 338 334 329 325 325 326 326 326 327 327 327 325 325 322 314 302 293 283 272 253 227 218 213 208 191 176 170 161 153 145
327 330 335 335 334 334 335 336 336 337 338 339 340 339 338 334 331 329 330 331 329 329 332 335 338 337 339 342 339 334 341 8 219 224 198 186 183 182 168 162 157 154 148 146
326 330 335 335 334 333 334 336 338 340 339 340 342 341 338 336 334 332 332 331 333 339 345 346 346 344 353 0 348 347 1 28 69 93 107 112 124 140 148 146 143 136 131 140
325 331 339 340 337 336 334 336 339 338 339 346 345 341 337 337 335 333 333 335 340 346 345 344 340 347 2 8 349 347 14 39 66 81 94 110 119 126 134 135 134 135 140 147
325 336 342 339 338 338 337 339 337 338 346 350 344 340 339 339 338 337 336 338 344 343 335 334 336 349 3 359 342 351 22 33 59 89 108 117 114 126 134 135 138 138 140 148
329 338 341 337 336 338 341 337 336 343 349 349 346 343 340 339 340 340 338 340 342 342 336 331 342 355 357 342 327 358 25 35 47 62 79 93 104 117 120 124 130 135 142 148
332 336 335 333 333 336 336 335 341 347 349 348 347 346 344 343 342 341 342 341 337 336 338 347 352 348 339 329 336 4 13 25 38 51 62 74 95 109 119 129 136 142 145 151
328 331 330 329 331 327 330 340 347 350 349 348 350 349 347 343 342 341 339 337 338 335 339 349 341 337 332 326 336 352 2 7 13 29 53 68 87 110 127 136 139 150 154 157
313 321 322 323 323 322 336 343 347 349 348 351 354 354 351 346 345 346 335 331 339 337 342 343 342 341 334 332 342 351 358 360 4 22 52 89 115 127 137 142 147 155 160 163
299 307 305 318 317 329 336 342 345 349 352 356 354 357 357 355 349 342 338 340 345 345 345 345 346 345 349 351 352 357 7 11 358 352 23 61 109 128 136 142 151 156 159 158
264 274 290 291 301 332 342 345 342 350 355 357 353 355 356 357 354 349 345 346 351 349 350 349 350 352 359 360 2 7 12 10 355 353 14 55 118 132 144 156 156 154 153 154
239 246 239 274 359 6 347 340 343 352 5 1 352 357 358 358 356 352 353 354 354 355 353 353 355 356 2 4 6 10 12 12 3 359 357 358 53 121 138 148 147 148 149 150